Back to catalog

FENGYUN 1C DEB

AliveSSO
NORAD 32186·DEBRIS·🇨🇳 China

Launched May 10, 1999 from Taiyuan Satellite Launch Center

Loading…

Next Passes (next 24 hours)

TLE

FreshSource: Space-Track

Epoch: Sep 12, 2026, 22:46 UTC

1 32186U 99025CUG 26255.94869505  .00000858  00000-0  69541-3 0  9990
2 32186  99.5865 314.1202 0272836 204.4470 331.6309 13.77062701663831

Track FENGYUN 1C DEB in real time with AllMySat

Download on the App Store